DELTA 1 DEB, 10713

Orbit data source: Space-Track

DELTA 1 DEB, 10713 is space debris in SSO originally from a launch on Thu, 29 Jul 1976 UTC launched from the Air Force Western Test Range (AFWTR). Debris objects in space refer to the collection of defunct objects orbiting the Earth. Examples of debris include non-operational satellites, rocket bodies, and fragments generated from explosions, collisions, or faulty payload assembly.

Loading next visibility...
Identifier
10713, 1976-077AJ
Orbit
SSO
Country
Flag of USUS
Related business
Manufacturer
Unknown
Mission
Spacecraft
Bus & Motor
Unknown
Mass
Unknown
Launch date (UTC)
1976-07-29 (49 years ago)
Launch vehicle
Unknown
Launch site
Air Force Western Test Range (AFWTR)
Object type
Payload
Rocket body
Debris
Shape & HBR
Unknown
Radar Cross Section
Small (<0.1 m²)

Expand to show TLE details & history
Last TLE update: 23 hours ago

TLE from 23 hours ago
0 DELTA 1 DEB
1 10713U 76077AJ  25242.09241111  .00003020  00000-0  89025-2 0  9994
2 10713 101.5539  48.6883 0129547 152.9413 322.1607 13.06627463289545
Epoch: 2025-08-30T02:13Z
TLE epoch observation values (Epoch: 2025-08-30T02:13:04.319Z)
Latitude
63.44261°
Longitude
-119.09998°
Altitude
1,169.561 km
Speed
7.311 km/s
True Right ascension
16h 50m 47s
True Declination
63° 18' 44"
Sunlit
Object was in daylight at epoch
Visualization orbit readout
Latitude
Unknown
Longitude
Unknown
Altitude
Unknown
Speed
Unknown
Apparent Right ascension
Unknown
Apparent Declination
Unknown
Sunlit
N/A
Visualization observer readout
Local Sidereal Time
16:44:20
Azimuth
Unknown
Elevation
Unknown
Doppler factor
Unknown
Orbital elements
Apogee altitude
1,332.303 km
Perigee altitude
1,135.085 km
Semi-major axis
7,611.831 km
Eccentricity
0.01295
Inclination
101.5539°
RAAN
48.6883°
Arg. of periapsis
152.9413°
True anomaly
321.23828°
Mean anomaly
322.1607°
Eccentric anomaly
321.70068°
Mean motion
3.26821 °/min
Orbital period
110.15 mins
BSTAR
0.0089025
Loading maneuver chart data...
Computing Atmospheric mass density...
Loading historical data...
Loading historical data...
Loading historical data...
Loading historical data...
Loading historical data...
Loading historical data...
Loading historical data...

Documentation

Showing up to 5 results
|